Weather History for Enid, OK

Change the Weather History Date:

Friday, August 23, 2013

  Actual Average Record
Temperature  
Mean Temperature 82 °F -  
Max Temperature 96 °F 90 °F 105 °F (2011)
Min Temperature 69 °F 68 °F 66 °F (1997)
Cooling Degree Days 18    
Growing Degree Days 32 (Base 50)    
Moisture  
Dew Point 70 °F    
Average Humidity 80    
Maximum Humidity 94    
Minimum Humidity 34    
Precipitation  
Precipitation 0.00 in - - ()
Sea Level Pressure  
Sea Level Pressure 30.00 in    
Wind  
Wind Speed 4 mph (SE)    
Max Wind Speed 17 mph    
Max Gust Speed -    
Visibility 10 miles    
Events      
Averages and records for this station are not official NWS values.
T = Trace of Precipitation, MM = Missing Value Source: NWS Daily Summary

Daily Weather History Graph

Daily Weather History Graph

Search for Another Location

Airport:

Trip Planner

Search our weather history database for the weather conditions in past years. The results will help you decide how hot, cold, wet, or windy it might be!

Date:

Astronomy

Aug. 23, 2013 Rise Set
Actual Time 6:55 AM CDT 8:11 PM CDT
Civil Twilight 6:28 AM CDT 8:37 PM CDT
Nautical Twilight 5:56 AM CDT 9:09 PM CDT
Astronomical Twilight 5:23 AM CDT 9:43 PM CDT
Moon 9:38 PM CDT (8/23) 9:45 AM CDT (8/23)
Length of Visible Light 14h 09m
Length of Day
13h 15m
Waning Gibbous, 91% of the Moon is Illuminated
Aug 23
Waning Gibbous
Aug 28
Last Quarter
Sep 5
New
Sep 12
First Quarter
Sep 19
Full

Hourly Weather History & Observations

Time (CDT) Temp. Heat Index Dew Point Humidity Pressure Visibility Wind Dir Wind Speed Gust Speed Precip Events Conditions
12:15 AM 71.6 °F - 69.8 °F 94% 30.02 in 10.0 mi SSE 4.6 mph - N/A   Clear
12:35 AM 71.6 °F - 69.8 °F 94% 30.02 in 10.0 mi SSE 3.5 mph - N/A   Clear
12:55 AM 71.6 °F - 69.8 °F 94% 30.02 in 10.0 mi Calm Calm - N/A   Clear
1:15 AM 71.6 °F - 69.8 °F 94% 30.02 in 10.0 mi SE 3.5 mph - N/A   Scattered Clouds
1:35 AM 71.6 °F - 69.8 °F 94% 30.02 in 10.0 mi SE 3.5 mph - N/A   Scattered Clouds
1:55 AM 71.6 °F - 69.8 °F 94% 30.02 in 10.0 mi Calm Calm - N/A   Scattered Clouds
2:15 AM 71.6 °F - 69.8 °F 94% 30.02 in 10.0 mi Calm Calm - N/A   Clear
2:35 AM 71.6 °F - 68.0 °F 88% 30.02 in 10.0 mi SE 3.5 mph - N/A   Clear
2:55 AM 71.6 °F - 68.0 °F 88% 30.01 in 10.0 mi SE 5.8 mph - N/A   Clear
3:15 AM 71.6 °F - 68.0 °F 88% 30.01 in 10.0 mi SE 4.6 mph - N/A   Clear
3:35 AM 71.6 °F - 68.0 °F 88% 30.01 in 10.0 mi Calm Calm - N/A   Clear
3:55 AM 71.6 °F - 68.0 °F 88% 30.01 in 10.0 mi Calm Calm - N/A   Clear
4:15 AM 69.8 °F - 68.0 °F 94% 30.01 in 10.0 mi Calm Calm - N/A   Clear
4:35 AM 69.8 °F - 68.0 °F 94% 30.00 in 10.0 mi Calm Calm - N/A   Clear
4:55 AM 69.8 °F - 68.0 °F 94% 30.00 in 10.0 mi Calm Calm - N/A   Clear
5:15 AM 69.8 °F - 68.0 °F 94% 30.00 in 10.0 mi SE 3.5 mph - N/A   Clear
5:35 AM 69.8 °F - 68.0 °F 94% 30.00 in 7.0 mi SE 3.5 mph - N/A   Clear
5:55 AM 69.8 °F - 68.0 °F 94% 29.99 in 7.0 mi SE 3.5 mph - N/A   Clear
6:15 AM 69.8 °F - 68.0 °F 94% 30.00 in 7.0 mi Calm Calm - N/A   Scattered Clouds
6:50 AM 69.8 °F - 68.0 °F 94% 30.01 in 7.0 mi Calm Calm - N/A   Scattered Clouds
7:59 AM 71.6 °F - 69.8 °F 94% 30.03 in 10.0 mi ESE 6.9 mph - N/A   Scattered Clouds
8:50 AM 77.0 °F - 71.6 °F 83% 30.04 in 10.0 mi SE 6.9 mph - N/A   Scattered Clouds
9:50 AM 80.6 °F 84.6 °F 71.6 °F 74% 30.04 in 10.0 mi SSE 5.8 mph - N/A   Scattered Clouds
10:50 AM 86.0 °F 91.8 °F 71.6 °F 62% 30.04 in 10.0 mi SE 11.5 mph - N/A   Scattered Clouds
11:50 AM 91.4 °F 98.4 °F 71.6 °F 52% 30.02 in 10.0 mi SE 8.1 mph - N/A   Scattered Clouds
12:50 PM 93.2 °F 100.5 °F 71.6 °F 49% 30.01 in 10.0 mi SE 11.5 mph - N/A   Scattered Clouds
1:50 PM 93.2 °F 100.5 °F 71.6 °F 49% 29.99 in 10.0 mi South 8.1 mph - N/A   Scattered Clouds
2:50 PM 96.8 °F 99.0 °F 64.4 °F 34% 29.98 in 10.0 mi SE 11.5 mph - N/A   Mostly Cloudy
4:50 PM 95.0 °F 98.5 °F 66.2 °F 39% 29.95 in 10.0 mi SE 17.3 mph - N/A   Partly Cloudy
5:50 PM 95.0 °F 97.0 °F 64.4 °F 36% 29.94 in 10.0 mi SE 11.5 mph - N/A   Scattered Clouds
6:50 PM 93.2 °F 96.2 °F 66.2 °F 41% 29.94 in 10.0 mi ESE 11.5 mph - N/A   Scattered Clouds
7:50 PM 86.0 °F 91.8 °F 71.6 °F 62% 29.94 in 10.0 mi ESE 11.5 mph - N/A   Scattered Clouds
8:50 PM 80.6 °F 84.6 °F 71.6 °F 74% 29.96 in 10.0 mi ESE 9.2 mph - N/A   Partly Cloudy
9:15 PM 78.8 °F - 71.6 °F 78% 29.97 in 10.0 mi SE 5.8 mph - N/A   Clear
9:35 PM 77.0 °F - 71.6 °F 83% 29.98 in 10.0 mi SE 4.6 mph - N/A   Clear
9:55 PM 77.0 °F - 73.4 °F 89% 29.99 in 10.0 mi SE 6.9 mph - N/A   Clear
10:15 PM 77.0 °F - 71.6 °F 83% 30.01 in 10.0 mi SE 6.9 mph - N/A   Clear
10:35 PM 78.8 °F - 71.6 °F 78% 30.01 in 10.0 mi SE 9.2 mph - N/A   Clear
10:55 PM 77.0 °F - 71.6 °F 83% 30.01 in 10.0 mi SE 8.1 mph - N/A   Clear
11:15 PM 77.0 °F - 71.6 °F 83% 30.01 in 10.0 mi SSE 6.9 mph - N/A   Clear
11:35 PM 75.2 °F - 71.6 °F 89% 30.01 in 10.0 mi SSE 5.8 mph - N/A   Clear
11:55 PM 75.2 °F - 71.6 °F 89% 30.01 in 10.0 mi SE 5.8 mph - N/A   Clear